Home   Weather   Pirmasens   Past weeks

Flag for Germany Past Weather in Pirmasens, Rhineland-Palatinate, Germany — Yesterday and Last 2 Weeks

Now
48 °F

Overcast.


Feels Like: 42 °F
Forecast: 42 / 48 °F
Wind: 15 mph from Southwest

Location: Ramstein

Current Time: Feb 22, 2017 at 8:40:28 pm

Latest Report: Feb 22, 2017 at 8:17 pm


Visibility: N/A

Pressure: 29.86 "Hg

Humidity: 94%

Dew Point: 46 °F

Location of PirmasensLocation

Past Weather in Pirmasens — Graph

°F

Pirmasens Temperature Yesterday

Maximum temperature yesterday: 54 °F (at 1:42 pm)
Minimum temperature yesterday: 46 °F (at 12:38 am)
Average temperature yesterday: 50 °F

High & Low Weather Summary for the Past Weeks

 TemperatureHumidityPressure
High59 °F (Feb 16, 2:58 pm)100% (Feb 7, 8:20 pm)30.62 "Hg (Feb 7, 8:20 pm)
Low19 °F (Feb 19, 7:42 am)58% (Feb 15, 2:58 pm)29.86 "Hg (Feb 22, 6:36 pm)
Average39 °F93%30.21 "Hg
* Reported Feb 7 7:58 pm — Feb 22 7:30 pm, Pirmasens, Weather by CustomWeather, © 2017

Note: Actual official high and low records may vary slightly from our data, if they occured in-between our weather recording intervals... More about our weather records

Advertising

Pirmasens Weather History for the Previous 24 Hours

Scroll right to see more
 ConditionsComfort  
Time TempWeatherWind HumidityBarometerVisibility
7:30 pm
Wed, Feb 22
48 °FOvercast.17 mph94%29.86 "HgN/A
7:06 pm48 °FOvercast.16 mph94%29.87 "HgN/A
6:58 pm49 °FOvercast.20 mph91%29.89 "HgN/A
6:36 pm48 °FOvercast.23 mph94%29.86 "HgN/A
5:58 pm49 °FOvercast.18 mph88%29.89 "HgN/A
4:59 pm50 °FOvercast.14 mph88%29.87 "HgN/A
4:20 pm50 °FOvercast.22 mph88%29.87 "HgN/A
3:58 pm49 °FOvercast.14 mph88%29.89 "HgN/A
3:28 pm50 °FMostly cloudy.15 mph88%29.88 "HgN/A
2:58 pm49 °FOvercast.18 mph90%29.90 "HgN/A
1:59 pm50 °FOvercast.20 mph88%29.90 "HgN/A
1:58 pm50 °FOvercast.20 mph88%29.92 "HgN/A
1:27 pm48 °FOvercast.10 mph94%29.90 "HgN/A
12:58 pm48 °FOvercast.18 mph94%29.93 "HgN/A
12:30 pm50 °FOvercast.15 mph88%29.92 "HgN/A
12:18 pm50 °FMostly cloudy.16 mph88%29.92 "HgN/A
12:05 pm50 °FMostly cloudy.14 mph88%29.92 "HgN/A
11:58 am50 °FMostly cloudy.17 mph94%29.94 "HgN/A
11:31 am48 °FLight rain. Mostly cloudy.20 mph100%29.92 "HgN/A
11:16 am48 °FLight rain. Mostly cloudy.14 mph100%29.93 "HgN/A
10:58 am48 °FLight rain. Mostly cloudy.18 mph100%29.94 "HgN/A
9:58 am49 °FOvercast.9 mph94%29.95 "HgN/A
9:26 am48 °FMostly cloudy.13 mph100%29.93 "HgN/A
9:17 am48 °FMostly cloudy.13 mph100%29.93 "HgN/A
9:00 am48 °FDrizzle. Fog.15 mph100%29.92 "Hg6 mi
8:58 am48 °FDrizzle. Fog.10 mph100%29.94 "Hg6 mi
8:25 am48 °FMostly cloudy.16 mph100%29.91 "HgN/A
8:24 am48 °FOvercast.16 mph100%29.91 "HgN/A
7:58 am49 °FOvercast.10 mph94%29.92 "HgN/A
7:37 am48 °FMostly cloudy.15 mph100%29.90 "HgN/A
7:03 am48 °FMostly cloudy.16 mph100%29.91 "HgN/A
6:58 am48 °FMostly cloudy.15 mph100%29.92 "HgN/A
6:09 am50 °FOvercast.17 mph94%29.91 "HgN/A
5:58 am49 °FOvercast.13 mph99%29.94 "HgN/A
5:39 am50 °FOvercast.13 mph100%29.92 "HgN/A
5:00 am50 °FOvercast.13 mph100%29.93 "HgN/A
4:58 am50 °FOvercast.14 mph100%29.95 "HgN/A
4:17 am50 °FOvercast.16 mph100%29.94 "HgN/A
3:58 am50 °FOvercast.10 mph100%29.95 "HgN/A
3:31 am50 °FOvercast.12 mph100%29.94 "HgN/A
2:58 am50 °FOvercast.13 mph99%29.97 "HgN/A
2:21 am50 °FOvercast.14 mph100%29.97 "HgN/A
1:58 am50 °FLight rain. Overcast.14 mph99%29.99 "HgN/A
12:58 am50 °FCool.5 mph99%30.01 "HgN/A
12:19 am50 °FLow clouds.9 mph100%30.01 "HgN/A
12:06 am50 °FLight rain. Low clouds.8 mph100%30.00 "HgN/A
11:58 pm
Tue, Feb 21
50 °FLight rain. Low clouds.15 mph100%30.02 "HgN/A
11:29 pm50 °FLight rain. Low clouds.13 mph100%30.02 "HgN/A
10:58 pm50 °FOvercast.8 mph99%30.04 "HgN/A
10:13 pm50 °FOvercast.8 mph100%30.02 "HgN/A
9:58 pm50 °FOvercast.9 mph100%30.05 "HgN/A
8:59 pm48 °FOvercast.12 mph100%30.04 "HgN/A
8:58 pm49 °FLow clouds.10 mph99%30.06 "HgN/A
8:32 pm48 °FMostly cloudy.9 mph100%30.04 "HgN/A
8:01 pm48 °FOvercast.10 mph100%30.04 "HgN/A
Weather by CustomWeather, © 2017

See weather overviewHow to use our weather pages